Torna al catalogo

STARLINK-37402

AttivoComunicazioniVLEO
NORAD 69210·PAYLOAD·🇺🇸 United States

Lanciato May 25, 2026 da Cape Canaveral Space Force Station

Loading…

Prossimi Passaggi (prossime 24 ore)

TLE

AggiornatoSource: CelesTrak SupGP

Epoca: Sep 14, 2026, 23:07 UTC

1 69210C 26114AE  26257.96368056 -.00051725  00000+0 -15284-2 0  2577
2 69210  53.1565 139.2774 0001343  89.1720 158.5086 15.34413490    14

Traccia STARLINK-37402 in tempo reale con AllMySat

Download on the App Store